Joplin, MO

12:05 PM CDT on October 20, 2019 (GMT -0500)
Joplin Regional

Weather History for KJLN - August, 2019

Change the Weather History Date:

Friday, August 30, 2019

  Actual Average Record
Temperature  
Mean Temperature 70 °F 77 °F  
Max Temperature 77 °F 89 °F 103 °F (2000)
Min Temperature 62 °F 66 °F 50 °F (1988)
Degree Days  
Heating Degree Days 0 0  
Month to date heating degree days 0 0  
Since 1 June heating degree days 1 5  
Since 1 July heating degree days 0 0  
Cooling Degree Days 4 12  
Month to date cooling degree days 397 446  
Year to date cooling degree days 1248 1417  
Since 1 June cooling degree days 1095 1237  
Growing Degree Days 20 (Base 50)    
Moisture  
Dew Point 66 °F    
Average Humidity 89    
Maximum Humidity 100    
Minimum Humidity 78    
Precipitation  
Precipitation 0.59 in 0.13 in 1.26 in (1994)
Month to date precipitation 5.98 3.22  
Year to date precipitation 48.89 30.84  
Sea Level Pressure  
Sea Level Pressure 30.06 in    
Wind  
Wind Speed 11 mph ()    
Max Wind Speed 29 mph    
Max Gust Speed 42 mph    
Visibility 8.6 miles    
Events Rain , Thunderstorm    
T = Trace of Precipitation, MM = Missing Value Source: Averaged Metar Reports

Daily Weather History Graph

Daily Weather History Graph

Search for Another Location

Airport or City:

Astronomy

Aug. 30, 2019 Rise Set
Actual Time 6:46 AM CDT 7:49 PM CDT
Civil Twilight 6:20 AM CDT 8:16 PM CDT
Nautical Twilight 5:48 AM CDT 8:48 PM CDT
Astronomical Twilight 5:15 AM CDT 9:21 PM CDT
Moon 6:49 AM CDT (8/30) 8:26 PM CDT (8/30)
Length of Visible Light 13h 56m
Length of Day
13h 02m
New Moon, 0% of the Moon is Illuminated
Aug 30
New Moon
Sep 5
First Quarter
Sep 13
Full
Sep 21
Last Quarter
Sep 28
New

Hourly Weather History & Observations

Time (CDT) Temp. Dew Point Humidity Pressure Visibility Wind Dir Wind Speed Gust Speed Precip Events Conditions
12:53 AM 77.0 °F 71.1 °F 82% 29.98 in 10.0 mi SSE 6.9 mph - N/A   Clear
1:53 AM 77.0 °F 71.1 °F 82% 29.96 in 10.0 mi SSE 10.4 mph - N/A   Partly Cloudy
2:53 AM 75.9 °F 71.1 °F 85% 29.96 in 10.0 mi South 13.8 mph - N/A   Clear
3:53 AM 77.0 °F 71.1 °F 82% 29.99 in 10.0 mi WSW 26.5 mph 40.3 mph N/A   Mostly Cloudy
3:58 AM 73.0 °F 66.0 °F 79% 30.04 in 9.0 mi West 26.5 mph 40.3 mph 0.00 in Rain , Thunderstorm Light Rain
4:03 AM 70.0 °F 64.9 °F 84% 30.04 in 2.0 mi West 21.9 mph 40.3 mph 0.10 in Rain , Thunderstorm Heavy Thunderstorms and Rain
4:10 AM 68.0 °F 66.0 °F 93% 30.06 in 1.0 mi West 18.4 mph 41.4 mph 0.16 in Rain , Thunderstorm Heavy Thunderstorms and Rain
4:21 AM 66.9 °F 66.0 °F 97% 30.06 in 2.0 mi West 11.5 mph 25.3 mph 0.29 in Rain , Thunderstorm Heavy Thunderstorms and Rain
4:29 AM 66.9 °F 66.0 °F 97% 30.06 in 2.5 mi West 9.2 mph - 0.33 in Rain , Thunderstorm Thunderstorms and Rain
4:36 AM 66.9 °F 66.0 °F 97% 30.06 in 4.0 mi WSW 10.4 mph - 0.33 in Rain , Thunderstorm Rain
4:53 AM 66.9 °F 66.0 °F 97% 30.01 in 8.0 mi WSW 11.5 mph - 0.36 in Rain , Thunderstorm Light Thunderstorms and Rain
5:53 AM 66.9 °F 66.0 °F 97% 30.00 in 7.0 mi SW 9.2 mph - 0.13 in Rain , Thunderstorm Thunderstorms and Rain
6:32 AM 66.9 °F 66.0 °F 97% 30.03 in 10.0 mi WSW 11.5 mph - 0.06 in Rain Light Rain
6:53 AM 66.9 °F 66.0 °F 97% 30.00 in 10.0 mi Variable 4.6 mph - 0.08 in Rain Light Rain
7:14 AM 66.9 °F 66.0 °F 97% 30.01 in 10.0 mi Variable 4.6 mph - 0.01 in Rain , Thunderstorm Light Rain
7:29 AM 66.9 °F 64.9 °F 93% 30.00 in 10.0 mi Variable 4.6 mph - 0.01 in Rain Light Rain
7:53 AM 66.9 °F 64.9 °F 93% 29.94 in 10.0 mi Variable 4.6 mph - 0.02 in   Mostly Cloudy
8:53 AM 68.0 °F 66.0 °F 93% 29.98 in 10.0 mi SSW 10.4 mph - N/A   Mostly Cloudy
9:53 AM 69.1 °F 66.0 °F 90% 30.03 in 10.0 mi West 15.0 mph - N/A   Overcast
10:53 AM 70.0 °F 66.0 °F 87% 30.04 in 10.0 mi West 13.8 mph - N/A   Mostly Cloudy
11:53 AM 70.0 °F 66.9 °F 90% 30.04 in 8.0 mi West 12.7 mph - N/A   Overcast
12:29 PM 70.0 °F 66.0 °F 87% 30.08 in 10.0 mi West 17.3 mph 23.0 mph N/A   Mostly Cloudy
12:53 PM 69.1 °F 66.0 °F 90% 30.06 in 9.0 mi WNW 11.5 mph 23.0 mph 0.00 in Rain Light Rain
1:43 PM 73.0 °F 68.0 °F 84% 30.08 in 10.0 mi WNW 12.7 mph - 0.00 in   Mostly Cloudy
1:53 PM 72.0 °F 66.0 °F 81% 30.06 in 9.0 mi WNW 17.3 mph 23.0 mph 0.00 in   Mostly Cloudy
2:07 PM 70.0 °F 68.0 °F 93% 30.09 in 3.0 mi NW 11.5 mph - 0.00 in Rain Light Rain
2:29 PM 71.1 °F 69.1 °F 93% 30.08 in 10.0 mi NW 8.1 mph - 0.00 in   Overcast
2:53 PM 72.0 °F 68.0 °F 87% 30.06 in 10.0 mi NW 9.2 mph - 0.00 in   Overcast
3:27 PM 71.1 °F 66.9 °F 87% 30.10 in 10.0 mi North 11.5 mph - N/A   Overcast
3:53 PM 71.1 °F 66.0 °F 84% 30.07 in 10.0 mi North 12.7 mph - N/A   Mostly Cloudy
4:53 PM 69.1 °F 64.9 °F 87% 30.10 in 10.0 mi North 10.4 mph - N/A   Overcast
5:53 PM 70.0 °F 64.0 °F 81% 30.10 in 10.0 mi NE 10.4 mph 18.4 mph N/A   Overcast
6:53 PM 69.1 °F 63.0 °F 81% 30.10 in 10.0 mi NE 9.2 mph - N/A   Overcast
7:53 PM 66.9 °F 62.1 °F 84% 30.11 in 10.0 mi NE 4.6 mph - N/A   Scattered Clouds
8:29 PM 66.9 °F 63.0 °F 87% 30.13 in 10.0 mi NNE 5.8 mph - N/A   Mostly Cloudy
8:53 PM 66.9 °F 62.1 °F 84% 30.12 in 10.0 mi NE 5.8 mph - N/A   Mostly Cloudy
9:28 PM 66.0 °F 62.1 °F 87% 30.15 in 10.0 mi NE 5.8 mph - N/A   Scattered Clouds
9:53 PM 64.9 °F 62.1 °F 90% 30.13 in 10.0 mi NE 5.8 mph - N/A   Clear
10:53 PM 64.0 °F 62.1 °F 93% 30.14 in 10.0 mi NNE 3.5 mph - N/A   Clear
11:34 PM 64.0 °F 62.1 °F 93% 30.14 in 10.0 mi ENE 4.6 mph - N/A   Scattered Clouds
11:53 PM 63.0 °F 62.1 °F 97% 30.13 in 10.0 mi East 5.8 mph - N/A   Partly Cloudy